Escanaba, MI

5:20 AM EST on February 10, 2016 (GMT -0500)
Hurley Marine Lake Side Weather | | Change Station
CLOSE
Current Station
Personal Weather Station
Location: Escanaba, MI
Elevation: 607 ft
Nearby Weather Stations

Elev 607 ft 45.73 °N, 87.06 °W | Updated 18 seconds ago

Mostly Cloudy
Mostly Cloudy
7.4 °F
Feels Like -11 °F
N
18.0
Wind Variable Wind from NW
Gusts 21.0 mph

Today
High -- | Low -- °F
--% Chance of Precip.
Yesterday
High -- | Low -- °F
Precip. -- in
Pressure 29.88 in
Visibility 10.0 miles
Clouds Mostly Cloudy 1700 ft
Mostly Cloudy 2100 ft
Windchill -11 °F
Dew Point 1 °F
Humidity 75%
Rainfall 0.00 in
Snow Depth Not available.
7:58 AM 6:07 PM
Waxing Crescent, 4% visible
METAR KESC 101015Z AUTO 31010KT 10SM BKN017 BKN021 M14/M19 A2988 RMK AO1
Pressure 29.88 in
Visibility 10.0 miles
Clouds Mostly Cloudy 1700 ft
Mostly Cloudy 2100 ft
Windchill -11 °F
Dew Point 1 °F
Humidity 75%
Rainfall 0.00 in
Snow Depth Not available.
7:58 AM 6:07 PM
Waxing Crescent, 4% visible
METAR KESC 101015Z AUTO 31010KT 10SM BKN017 BKN021 M14/M19 A2988 RMK AO1

10-Day Weather Forecast

Almanac

Astronomy

Feb. 10, 2016 Rise Set
Actual Time
Civil Twilight
Nautical Twilight
Astronomical Twilight
Moon
Length of Visible Light
Length of Day
Tomorrow will be .
, % of the Moon is Illuminated

Today's Extremes

State Highs State Lows

Community

WunderPhotos

Upload Photos

1,891,830 photos uploaded!

WunderBlog® & News

Nearby

Air Quality

  Air Quality AQ Index Pollutant
Not available.

Snow Depth

Station Depth Elevation

Earthquake Activity

City Distance Mag. Time & Date
Minimum magnitude displayed is 2.5.

Coastal Water Temperatures

Place Temperature

Stations

Nearby Weather Stations

Station Location Temp. Windchill Dew Point Humidity Wind Precip. Elev Updated Type
                   

Watches & Warnings

There are currently no watches in effect.